STARLINK-31388, 59565

Orbit data source: Space-Track

STARLINK-31388, 59565 is a payload satellite owned by SpaceX/Seattle (US) in LEO that was launched on Tue, 23 Apr 2024 UTC via an FALCON 9 launch vehicle from the Air Force Eastern Test Range (AFETR). Payload-class satellites include a variety of spacecraft equipped with specific instruments for various scientific and technological missions. These include communications satellites like Starlink; space stations such as the ISS; scientific satellites like the Hubble; Earth observation satellites from companies like Planet Labs, Umbra, and HawkEye 360; GPS; miniature CubeSats for education and research; and military/defense satellites.

Loading next visibility...
Identifier
59565, 2024-076B
Orbit
LEO
Country
Flag of USUS
Related business
Manufacturer
SpaceX/Seattle
Mission
Operational Commercial Communications
Bus & Motor
STARLINK V2M, Unknown motor
Mass
730 kg wet, ~700 kg dry
Launch date (UTC)
2024-04-23 (2 years ago)
Launch vehicle
FALCON 9
Launch site
Air Force Eastern Test Range (AFETR)
Object type
Payload
Rocket body
Debris
Shape & HBR
Box + 2 Pan, 17.7 m
Radar Cross Section
33.884 m², Large (>1 m²)

Expand to show TLE details & history
Last TLE update: 18 hours ago

TLE from 18 hours ago
0 STARLINK-31388
1 59565U 24076B   25302.93948582  .00033363  00000-0  12181-2 0  9992
2 59565  43.0021  27.6402 0003697  59.9841 300.1377 15.27530477 86505
Epoch: 2025-10-29T22:32Z
TLE epoch observation values (Epoch: 2025-10-29T22:32:51.574Z)
Latitude
-0.00005°
Longitude
10.91983°
Altitude
481.7 km
Speed
7.627 km/s
True Right ascension
01h 50m 33s
True Declination
0° 00' 00"
Sunlit
Object was in full shadow at epoch
Visualization orbit readout
Latitude
Unknown
Longitude
Unknown
Altitude
Unknown
Speed
Unknown
Apparent Right ascension
Unknown
Apparent Declination
Unknown
Sunlit
N/A
Visualization observer readout
Local Sidereal Time
11:52:27
Azimuth
Unknown
Elevation
Unknown
Doppler factor
Unknown
Orbital elements
Apogee altitude
487.68 km
Perigee altitude
482.605 km
Semi-major axis
6,863.279 km
Eccentricity
0.00037
Inclination
43.0021°
RAAN
27.6402°
Arg. of periapsis
59.9841°
True anomaly
300.10105°
Mean anomaly
300.1377°
Eccentric anomaly
300.11938°
Mean motion
3.81721 °/min
Orbital period
94.31 mins
BSTAR
0.0012181
Loading maneuver chart data...
Computing Atmospheric mass density...
Loading historical data...
Loading historical data...
Loading historical data...
Loading historical data...
Loading historical data...
Loading historical data...
Loading historical data...

Documentation

Showing up to 5 results
|